When you browse on this site, cookies collect data to enhance your experience and personalize the content and advertising you see.
Visit our Privacy Policy to learn more. By continuing to use the site, you agree to this use of cookies and data.
  • In United Kingdom
  • List of Countries
  • For 7 days
  • Water Temperature
  • Weather Map
  • Weather Widgets
  • user-avatar
    Login

    Hourly Weather Kerikeri

    Today, 20 September, Friday

    Time Temperature Precipitation Wind Pressure Humidity
    00:00 +7°C° 0 mm 2 mps 766 mmHg 98%
    01:00 +7°C° 0 mm 2 mps 766 mmHg 98%
    02:00 +7°C° 0 mm 1 mps 765 mmHg 98%
    03:00 +7°C° 0 mm 1 mps 765 mmHg 98%
    04:00 +6°C° 0 mm 2 mps 765 mmHg 98%
    05:00 +6°C° 0 mm 2 mps 765 mmHg 98%
    06:00 +6°C° 0 mm 2 mps 765 mmHg 98%
    07:00 +9°C° 0 mm 2 mps 766 mmHg 87%
    08:00 +12°C° 0 mm 2 mps 766 mmHg 76%
    09:00 +15°C° 0 mm 2 mps 766 mmHg 65%
    10:00 +16°C° 0 mm 2 mps 766 mmHg 61%
    11:00 +17°C° 0 mm 2 mps 766 mmHg 56%
    12:00 +18°C° 0 mm 2 mps 766 mmHg 52%
    13:00 +17°C° 0 mm 2 mps 766 mmHg 56%
    14:00 +17°C° 0 mm 2 mps 766 mmHg 60%
    15:00 +16°C° 0 mm 2 mps 765 mmHg 64%
    16:00 +15°C° 0 mm 2 mps 765 mmHg 71%
    17:00 +14°C° 0 mm 2 mps 765 mmHg 79%
    18:00 +12°C° 0 mm 2 mps 765 mmHg 87%
    19:00 +12°C° 0 mm 2 mps 765 mmHg 89%
    20:00 +10°C° 0 mm 2 mps 766 mmHg 92%
    21:00 +9°C° 0 mm 2 mps 766 mmHg 95%
    22:00 +9°C° 0 mm 2 mps 766 mmHg 96%
    23:00 +8°C° 0 mm 2 mps 766 mmHg 97%

    Tomorrow, 21 September, Saturday

    Time Temperature Precipitation Wind Pressure Humidity
    00:00 +7°C° 0 mm 2 mps 767 mmHg 98%
    01:00 +7°C° 0 mm 2 mps 766 mmHg 98%
    02:00 +7°C° 0 mm 2 mps 766 mmHg 98%
    03:00 +6°C° 0 mm 2 mps 766 mmHg 98%
    04:00 +6°C° 0 mm 2 mps 767 mmHg 98%
    05:00 +6°C° 0 mm 2 mps 767 mmHg 98%
    06:00 +6°C° 0 mm 2 mps 767 mmHg 98%
    07:00 +9°C° 0 mm 2 mps 768 mmHg 90%
    08:00 +12°C° 0 mm 2 mps 768 mmHg 81%
    09:00 +15°C° 0 mm 1 mps 768 mmHg 73%
    10:00 +16°C° 0 mm 2 mps 768 mmHg 65%
    11:00 +18°C° 0 mm 2 mps 768 mmHg 57%
    12:00 +19°C° 0 mm 2 mps 768 mmHg 49%
    13:00 +18°C° 0.1 mm 2 mps 768 mmHg 59%
    14:00 +17°C° 0.1 mm 2 mps 767 mmHg 69%
    15:00 +15°C° 0.1 mm 2 mps 767 mmHg 80%
    16:00 +14°C° 0.1 mm 1 mps 767 mmHg 84%
    17:00 +14°C° 0.1 mm 1 mps 767 mmHg 89%
    18:00 +13°C° 0.1 mm 1 mps 767 mmHg 94%
    19:00 +12°C° 0 mm 1 mps 767 mmHg 95%
    20:00 +11°C° 0 mm 1 mps 767 mmHg 96%
    21:00 +10°C° 0 mm 1 mps 768 mmHg 97%
    22:00 +10°C° 0 mm 1 mps 767 mmHg 97%
    23:00 +9°C° 0 mm 1 mps 767 mmHg 97%

    Day after tomorrow, 22 September, Sunday

    Time Temperature Precipitation Wind Pressure Humidity
    00:00 +8°C° 0 mm 1 mps 767 mmHg 97%
    01:00 +8°C° 0 mm 1 mps 767 mmHg 97%
    02:00 +8°C° 0 mm 1 mps 766 mmHg 97%
    03:00 +7°C° 0 mm 1 mps 766 mmHg 97%
    04:00 +7°C° 0 mm 1 mps 766 mmHg 98%
    05:00 +7°C° 0 mm 1 mps 766 mmHg 98%
    06:00 +7°C° 0 mm 1 mps 766 mmHg 98%
    07:00 +9°C° 0 mm 1 mps 766 mmHg 93%
    08:00 +11°C° 0 mm 1 mps 766 mmHg 89%
    09:00 +14°C° 0 mm 1 mps 767 mmHg 84%
    10:00 +15°C° 0 mm 2 mps 767 mmHg 74%
    11:00 +17°C° 0 mm 2 mps 767 mmHg 64%
    12:00 +18°C° 0 mm 2 mps 767 mmHg 53%
    13:00 +18°C° 0 mm 2 mps 766 mmHg 53%
    14:00 +18°C° 0 mm 3 mps 765 mmHg 53%
    15:00 +18°C° 0 mm 3 mps 765 mmHg 53%
    16:00 +16°C° 0 mm 3 mps 765 mmHg 61%
    17:00 +14°C° 0 mm 3 mps 765 mmHg 69%
    18:00 +12°C° 0 mm 3 mps 765 mmHg 78%
    19:00 +11°C° 0 mm 3 mps 765 mmHg 85%
    20:00 +9°C° 0 mm 2 mps 765 mmHg 91%
    21:00 +8°C° 0 mm 2 mps 765 mmHg 98%
    22:00 +7°C° 0 mm 2 mps 764 mmHg 98%
    23:00 +7°C° 0 mm 2 mps 764 mmHg 98%

    23 September, Monday

    Time Temperature Precipitation Wind Pressure Humidity
    00:00 +8°C° 0 mm 1 mps 764 mmHg 98%
    01:00 +8°C° 0 mm 1 mps 763 mmHg 98%
    02:00 +8°C° 0 mm 1 mps 763 mmHg 98%
    03:00 +8°C° 0 mm 1 mps 763 mmHg 99%
    04:00 +8°C° 0 mm 1 mps 762 mmHg 99%
    05:00 +8°C° 0 mm 1 mps 762 mmHg 98%
    06:00 +8°C° 0 mm 1 mps 762 mmHg 98%
    07:00 +10°C° 0 mm 1 mps 762 mmHg 90%
    08:00 +12°C° 0 mm 2 mps 762 mmHg 82%
    09:00 +14°C° 0 mm 2 mps 762 mmHg 74%
    10:00 +14°C° 0 mm 3 mps 762 mmHg 69%
    11:00 +16°C° 0 mm 3 mps 761 mmHg 64%
    12:00 +17°C° 0 mm 4 mps 761 mmHg 59%
    13:00 +17°C° 0 mm 4 mps 760 mmHg 60%
    14:00 +15°C° 0 mm 4 mps 760 mmHg 61%
    15:00 +15°C° 0 mm 4 mps 759 mmHg 63%
    16:00 +14°C° 0 mm 4 mps 759 mmHg 67%
    17:00 +14°C° 0 mm 4 mps 758 mmHg 71%
    18:00 +13°C° 0 mm 3 mps 758 mmHg 75%
    19:00 +12°C° 0 mm 4 mps 758 mmHg 79%
    20:00 +11°C° 0 mm 4 mps 758 mmHg 84%
    21:00 +10°C° 0 mm 4 mps 758 mmHg 88%
    22:00 +10°C° 0 mm 4 mps 757 mmHg 91%
    23:00 +10°C° 0 mm 5 mps 756 mmHg 94%

    24 September, Tuesday

    Time Temperature Precipitation Wind Pressure Humidity
    00:00 +10°C° 0 mm 5 mps 756 mmHg 97%
    01:00 +10°C° 0 mm 6 mps 755 mmHg 95%
    02:00 +11°C° 0 mm 6 mps 754 mmHg 94%
    03:00 +11°C° 0 mm 6 mps 753 mmHg 92%
    04:00 +11°C° 0.2 mm 7 mps 753 mmHg 92%
    05:00 +12°C° 0.2 mm 7 mps 752 mmHg 93%
    06:00 +12°C° 0.2 mm 8 mps 751 mmHg 93%
    07:00 +12°C° 0.4 mm 8 mps 751 mmHg 94%
    08:00 +12°C° 0.4 mm 9 mps 750 mmHg 95%
    09:00 +12°C° 0.4 mm 9 mps 750 mmHg 96%
    10:00 +12°C° 3.1 mm 9 mps 749 mmHg 95%
    11:00 +12°C° 3.1 mm 9 mps 748 mmHg 94%
    12:00 +12°C° 3.1 mm 8 mps 747 mmHg 93%
    13:00 +11°C° 0.1 mm 8 mps 747 mmHg 88%
    14:00 +11°C° 0.1 mm 8 mps 747 mmHg 82%
    15:00 +11°C° 0.1 mm 8 mps 747 mmHg 76%
    16:00 +11°C° 0.1 mm 7 mps 748 mmHg 76%
    17:00 +10°C° 0.1 mm 7 mps 749 mmHg 75%
    18:00 +10°C° 0.1 mm 6 mps 749 mmHg 74%
    19:00 +9°C° 0 mm 6 mps 750 mmHg 78%
    20:00 +8°C° 0 mm 6 mps 750 mmHg 82%
    21:00 +8°C° 0 mm 5 mps 751 mmHg 86%
    22:00 +7°C° 0 mm 5 mps 751 mmHg 87%
    23:00 +7°C° 0 mm 5 mps 751 mmHg 88%

    25 September, Wednesday

    Time Temperature Precipitation Wind Pressure Humidity
    00:00 +7°C° 0 mm 5 mps 751 mmHg 89%
    01:00 +7°C° 0 mm 5 mps 751 mmHg 90%
    02:00 +7°C° 0 mm 5 mps 751 mmHg 92%
    03:00 +7°C° 0 mm 5 mps 751 mmHg 93%
    04:00 +7°C° 0 mm 5 mps 751 mmHg 92%
    05:00 +6°C° 0 mm 5 mps 752 mmHg 90%
    06:00 +6°C° 0 mm 5 mps 752 mmHg 88%
    07:00 +8°C° 0 mm 5 mps 752 mmHg 82%
    08:00 +9°C° 0 mm 5 mps 753 mmHg 76%
    09:00 +12°C° 0 mm 5 mps 753 mmHg 69%
    10:00 +12°C° 0 mm 5 mps 753 mmHg 64%
    11:00 +13°C° 0 mm 5 mps 753 mmHg 59%
    12:00 +14°C° 0 mm 5 mps 753 mmHg 53%
    13:00 +14°C° 0 mm 5 mps 753 mmHg 55%
    14:00 +14°C° 0 mm 5 mps 753 mmHg 57%
    15:00 +14°C° 0 mm 5 mps 752 mmHg 59%
    16:00 +13°C° 0.1 mm 5 mps 752 mmHg 67%
    17:00 +12°C° 0.1 mm 5 mps 752 mmHg 75%
    18:00 +11°C° 0.1 mm 4 mps 752 mmHg 84%
    19:00 +9°C° 0 mm 5 mps 752 mmHg 87%
    20:00 +9°C° 0 mm 5 mps 752 mmHg 91%
    21:00 +8°C° 0 mm 5 mps 752 mmHg 95%
    22:00 +8°C° 0 mm 5 mps 752 mmHg 94%
    23:00 +8°C° 0 mm 5 mps 752 mmHg 93%
    Show more